Time,TemperatureF,DewpointF,PressureIn,WindDirection,WindDirectionDegrees,WindSpeedMPH,WindSpeedGustMPH,Humidity,HourlyPrecipIn,Conditions,Clouds,dailyrainin,SoftwareType,DateUTC
2013-08-26 00:13:00,69.0,66.0,30.12,SSE,164,0.0,-999.0,91,-99.99,,,-99.99,,2013-08-26 05:13:00,
2013-08-26 00:23:00,69.0,66.0,30.11,SSE,164,0.0,-999.0,90,-99.99,,,-99.99,,2013-08-26 05:23:00,
2013-08-26 00:43:00,69.0,66.0,30.11,SSE,164,0.0,-999.0,90,-99.99,,,-99.99,,2013-08-26 05:43:00,
2013-08-26 00:52:00,69.0,66.0,30.11,SSE,164,0.0,-999.0,90,-99.99,,,-99.99,,2013-08-26 05:52:00,
2013-08-26 01:12:00,68.0,65.0,30.11,SSE,164,0.0,-999.0,91,-99.99,,,-99.99,,2013-08-26 06:12:00,
2013-08-26 01:21:00,68.0,66.0,30.11,SSE,164,0.0,-999.0,92,-99.99,,,-99.99,,2013-08-26 06:21:00,
2013-08-26 01:42:00,68.0,65.0,30.11,SSE,164,0.0,-999.0,90,-99.99,,,-99.99,,2013-08-26 06:42:00,
2013-08-26 01:52:00,69.0,66.0,30.10,SSE,159,0.0,-999.0,89,-99.99,,,-99.99,,2013-08-26 06:52:00,
2013-08-26 02:11:00,69.0,65.0,30.10,South,178,0.0,-999.0,87,-99.99,,,-99.99,,2013-08-26 07:11:00,
2013-08-26 02:22:00,69.0,65.0,30.09,SE,143,0.0,-999.0,86,-99.99,,,-99.99,,2013-08-26 07:22:00,
2013-08-26 02:42:00,69.0,65.0,30.09,SSE,149,0.0,-999.0,86,-99.99,,,-99.99,,2013-08-26 07:42:00,
2013-08-26 02:52:00,69.0,65.0,30.10,SSE,149,0.0,-999.0,86,-99.99,,,-99.99,,2013-08-26 07:52:00,
2013-08-26 03:12:00,69.0,64.0,30.10,SSE,149,0.0,-999.0,85,-99.99,,,-99.99,,2013-08-26 08:12:00,
2013-08-26 03:22:00,69.0,64.0,30.10,SSE,149,0.0,-999.0,85,-99.99,,,-99.99,,2013-08-26 08:22:00,
2013-08-26 03:42:00,68.0,63.0,30.10,SSE,149,0.0,-999.0,85,-99.99,,,-99.99,,2013-08-26 08:42:00,
2013-08-26 03:52:00,67.0,63.0,30.10,SSE,149,0.0,-999.0,87,-99.99,,,-99.99,,2013-08-26 08:52:00,
2013-08-26 04:11:00,66.0,63.0,30.10,SSE,149,0.0,-999.0,89,-99.99,,,-99.99,,2013-08-26 09:11:00,
2013-08-26 04:21:00,66.0,63.0,30.09,SSE,149,0.0,-999.0,91,-99.99,,,-99.99,,2013-08-26 09:21:00,
2013-08-26 04:53:00,66.0,63.0,30.09,SSE,149,0.0,-999.0,91,-99.99,,,-99.99,,2013-08-26 09:53:00,
2013-08-26 05:12:00,65.0,62.0,30.09,SSE,149,0.0,-999.0,91,-99.99,,,-99.99,,2013-08-26 10:12:00,
2013-08-26 05:23:00,66.0,63.0,30.09,SSE,150,0.0,-999.0,91,-99.99,,,-99.99,,2013-08-26 10:23:00,
2013-08-26 05:42:00,66.0,63.0,30.10,SSE,150,0.0,-999.0,90,-99.99,,,-99.99,,2013-08-26 10:42:00,
2013-08-26 05:52:00,67.0,64.0,30.10,SSW,198,0.0,-999.0,91,-99.99,,,-99.99,,2013-08-26 10:52:00,
2013-08-26 06:12:00,67.0,64.0,30.10,SSW,198,0.0,-999.0,90,-99.99,,,-99.99,,2013-08-26 11:12:00,
2013-08-26 06:22:00,66.0,63.0,30.10,SSW,198,0.0,-999.0,90,-99.99,,,-99.99,,2013-08-26 11:22:00,
2013-08-26 06:52:00,66.0,63.0,30.10,SSW,198,0.0,-999.0,91,-99.99,,,-99.99,,2013-08-26 11:52:00,
2013-08-26 07:12:00,66.0,63.0,30.10,SSW,198,0.0,-999.0,91,-99.99,,,-99.99,,2013-08-26 12:12:00,
2013-08-26 07:21:00,66.0,63.0,30.11,SSW,198,0.0,-999.0,91,-99.99,,,-99.99,,2013-08-26 12:21:00,
2013-08-26 07:52:00,67.0,65.0,30.11,SSW,198,0.0,-999.0,92,-99.99,,,-99.99,,2013-08-26 12:52:00,
2013-08-26 08:11:00,69.0,66.0,30.12,SSW,198,0.0,-999.0,91,-99.99,,,-99.99,,2013-08-26 13:11:00,
2013-08-26 08:21:00,70.0,67.0,30.12,SSW,199,0.0,-999.0,89,-99.99,,,-99.99,,2013-08-26 13:21:00,
2013-08-26 08:42:00,72.0,68.0,30.11,SSW,207,0.0,-999.0,87,-99.99,,,-99.99,,2013-08-26 13:42:00,
2013-08-26 08:52:00,74.0,69.0,30.11,SW,225,0.0,-999.0,85,-99.99,,,-99.99,,2013-08-26 13:52:00,
2013-08-26 09:11:00,75.0,69.0,30.11,WSW,241,1.0,-999.0,82,-99.99,,,-99.99,,2013-08-26 14:11:00,
2013-08-26 09:22:00,76.0,70.0,30.11,SW,234,0.0,-999.0,81,-99.99,,,-99.99,,2013-08-26 14:22:00,
2013-08-26 09:42:00,77.0,70.0,30.11,SW,227,1.0,-999.0,79,-99.99,,,-99.99,,2013-08-26 14:42:00,
2013-08-26 09:52:00,78.0,71.0,30.10,WSW,250,0.0,-999.0,79,-99.99,,,-99.99,,2013-08-26 14:52:00,
2013-08-26 10:12:00,79.0,72.0,30.10,SW,234,1.0,-999.0,78,-99.99,,,-99.99,,2013-08-26 15:12:00,
2013-08-26 10:22:00,80.0,72.0,30.11,SW,232,0.0,-999.0,77,-99.99,,,-99.99,,2013-08-26 15:22:00,
2013-08-26 10:47:00,80.0,72.0,30.11,WSW,256,1.0,-999.0,77,-99.99,,,-99.99,,2013-08-26 15:47:00,
2013-08-26 10:59:00,81.0,73.0,30.11,WSW,247,0.0,-999.0,77,-99.99,,,-99.99,,2013-08-26 15:59:00,
2013-08-26 11:17:00,82.0,73.0,30.11,WSW,254,2.0,-999.0,74,-99.99,,,-99.99,,2013-08-26 16:17:00,
2013-08-26 11:29:00,82.0,74.0,30.10,WSW,249,1.0,-999.0,77,-99.99,,,-99.99,,2013-08-26 16:29:00,
2013-08-26 11:36:00,82.0,74.0,30.10,WSW,249,1.0,-999.0,77,-99.99,,,-99.99,,2013-08-26 16:36:00,
2013-08-26 11:48:00,82.0,74.0,30.10,WSW,249,1.0,-999.0,77,-99.99,,,-99.99,,2013-08-26 16:48:00,
2013-08-26 11:59:00,84.0,75.0,30.09,SW,230,1.0,-999.0,75,-99.99,,,-99.99,,2013-08-26 16:59:00,
2013-08-26 12:12:00,84.0,75.0,30.09,WSW,248,1.0,-999.0,74,-99.99,,,-99.99,,2013-08-26 17:12:00,
2013-08-26 12:24:00,85.0,76.0,30.08,SW,228,1.0,-999.0,75,-99.99,,,-99.99,,2013-08-26 17:24:00,
2013-08-26 12:43:00,85.0,75.0,30.08,West,270,1.0,-999.0,73,-99.99,,,-99.99,,2013-08-26 17:43:00,
2013-08-26 12:53:00,85.0,75.0,30.07,WSW,252,1.0,-999.0,73,-99.99,,,-99.99,,2013-08-26 17:53:00,
2013-08-26 13:12:00,86.0,77.0,30.07,WSW,257,0.0,-999.0,74,-99.99,,,-99.99,,2013-08-26 18:12:00,
2013-08-26 13:22:00,87.0,77.0,30.06,West,271,0.0,-999.0,72,-99.99,,,-99.99,,2013-08-26 18:22:00,
2013-08-26 13:52:00,87.0,76.0,30.05,WSW,249,0.0,-999.0,70,-99.99,,,-99.99,,2013-08-26 18:52:00,
2013-08-26 14:11:00,87.0,76.0,30.04,SW,231,1.0,-999.0,70,-99.99,,,-99.99,,2013-08-26 19:11:00,
2013-08-26 14:22:00,88.0,78.0,30.03,SW,234,0.0,-999.0,72,-99.99,,,-99.99,,2013-08-26 19:22:00,
2013-08-26 14:42:00,88.0,76.0,30.03,WSW,244,1.0,-999.0,67,-99.99,,,-99.99,,2013-08-26 19:42:00,
2013-08-26 14:52:00,88.0,76.0,30.03,SW,217,0.0,-999.0,68,-99.99,,,-99.99,,2013-08-26 19:52:00,
2013-08-26 15:11:00,88.0,76.0,30.02,SW,221,1.0,-999.0,67,-99.99,,,-99.99,,2013-08-26 20:11:00,
2013-08-26 15:22:00,88.0,75.0,30.02,SW,233,1.0,-999.0,66,-99.99,,,-99.99,,2013-08-26 20:22:00,
2013-08-26 15:43:00,88.0,76.0,30.02,SSW,201,1.0,-999.0,67,-99.99,,,-99.99,,2013-08-26 20:43:00,
2013-08-26 15:52:00,89.0,77.0,30.02,WSW,246,1.0,-999.0,68,-99.99,,,-99.99,,2013-08-26 20:52:00,
2013-08-26 16:11:00,89.0,76.0,30.01,SW,225,1.0,-999.0,66,-99.99,,,-99.99,,2013-08-26 21:11:00,
2013-08-26 16:22:00,89.0,76.0,30.01,SSE,162,0.0,-999.0,66,-99.99,,,-99.99,,2013-08-26 21:22:00,
2013-08-26 16:55:00,89.0,76.0,29.99,South,182,1.0,-999.0,66,-99.99,,,-99.99,,2013-08-26 21:55:00,
2013-08-26 17:16:00,88.0,76.0,29.99,South,180,0.0,-999.0,68,-99.99,,,-99.99,,2013-08-26 22:16:00,
2013-08-26 17:26:00,88.0,76.0,29.99,WSW,254,0.0,-999.0,68,-99.99,,,-99.99,,2013-08-26 22:26:00,
2013-08-26 17:42:00,88.0,75.0,29.99,SSW,202,0.0,-999.0,66,-99.99,,,-99.99,,2013-08-26 22:42:00,
2013-08-26 17:53:00,88.0,76.0,29.99,SSW,203,0.0,-999.0,68,-99.99,,,-99.99,,2013-08-26 22:53:00,
2013-08-26 18:12:00,87.0,75.0,29.99,SW,227,0.0,-999.0,68,-99.99,,,-99.99,,2013-08-26 23:12:00,
2013-08-26 18:22:00,87.0,76.0,29.98,SW,236,0.0,-999.0,70,-99.99,,,-99.99,,2013-08-26 23:22:00,
2013-08-26 18:52:00,87.0,76.0,29.97,South,187,0.0,-999.0,71,-99.99,,,-99.99,,2013-08-26 23:52:00,
2013-08-26 19:11:00,86.0,75.0,29.96,SSW,192,0.0,-999.0,70,-99.99,,,-99.99,,2013-08-27 00:11:00,
2013-08-26 19:21:00,85.0,75.0,29.96,SSW,194,0.0,-999.0,72,-99.99,,,-99.99,,2013-08-27 00:21:00,
2013-08-26 19:42:00,84.0,74.0,29.96,SSW,194,0.0,-999.0,73,-99.99,,,-99.99,,2013-08-27 00:42:00,
2013-08-26 19:52:00,82.0,73.0,29.96,SSW,194,0.0,-999.0,75,-99.99,,,-99.99,,2013-08-27 00:52:00,
2013-08-26 20:12:00,81.0,73.0,29.96,SSW,194,0.0,-999.0,78,-99.99,,,-99.99,,2013-08-27 01:12:00,
2013-08-26 20:22:00,80.0,73.0,29.96,South,189,0.0,-999.0,79,-99.99,,,-99.99,,2013-08-27 01:22:00,
2013-08-26 20:42:00,80.0,73.0,29.95,South,189,0.0,-999.0,80,-99.99,,,-99.99,,2013-08-27 01:42:00,
2013-08-26 20:52:00,79.0,73.0,29.96,South,189,0.0,-999.0,81,-99.99,,,-99.99,,2013-08-27 01:52:00,
2013-08-26 21:12:00,78.0,72.0,29.96,South,189,0.0,-999.0,83,-99.99,,,-99.99,,2013-08-27 02:12:00,
2013-08-26 21:21:00,78.0,73.0,29.96,South,189,0.0,-999.0,84,-99.99,,,-99.99,,2013-08-27 02:21:00,
2013-08-26 21:42:00,78.0,73.0,29.97,South,188,0.0,-999.0,85,-99.99,,,-99.99,,2013-08-27 02:42:00,
2013-08-26 21:52:00,78.0,73.0,29.97,South,188,0.0,-999.0,85,-99.99,,,-99.99,,2013-08-27 02:52:00,
2013-08-26 22:12:00,77.0,72.0,29.97,South,188,0.0,-999.0,86,-99.99,,,-99.99,,2013-08-27 03:12:00,
2013-08-26 22:22:00,77.0,72.0,29.97,South,189,0.0,-999.0,86,-99.99,,,-99.99,,2013-08-27 03:22:00,
2013-08-26 22:44:00,77.0,72.0,29.97,South,189,0.0,-999.0,86,-99.99,,,-99.99,,2013-08-27 03:44:00,
2013-08-26 22:58:00,77.0,73.0,29.97,South,189,0.0,-999.0,87,-99.99,,,-99.99,,2013-08-27 03:58:00,
2013-08-26 23:18:00,77.0,73.0,29.97,South,189,0.0,-999.0,87,-99.99,,,-99.99,,2013-08-27 04:18:00,
2013-08-26 23:29:00,77.0,73.0,29.97,South,189,0.0,-999.0,87,-99.99,,,-99.99,,2013-08-27 04:29:00,
2013-08-26 23:47:00,76.0,72.0,29.97,South,179,0.0,-999.0,87,-99.99,,,-99.99,,2013-08-27 04:47:00,
2013-08-26 23:54:00,76.0,72.0,29.96,South,179,0.0,-999.0,87,-99.99,,,-99.99,,2013-08-27 04:54:00,